{"data":{"norad_id":66078,"epoch":"2026-05-24T17:17:57.597792Z","epoch_age_seconds":92315,"freshness":"FRESH","line1":"1 66078U 25235W   26144.72080553  .00012440  00000+0  43134-3 0  9999","line2":"2 66078  53.1588 252.0081 0001218 101.7483 258.3654 15.30206735 34566","mean_motion":15.30206735,"eccentricity":0.0001218,"inclination_deg":53.1588,"raan_deg":252.0081,"arg_perigee_deg":101.7483,"mean_anomaly_deg":258.3654,"bstar":0.00043134,"rev_number":3456,"period_min":94.104931514368,"perigee_km":474.36022416435,"apogee_km":476.0296958298,"semimajor_km":6853.3319599971,"source":"CELESTRAK","updated_at":"2026-05-25T13:38:21.024680Z"}}